Content
SEND FEEDBACK

Daily
Averages
Monthly
Summary
United States of America

BLAND, VIRGINIA


Home > North America > United States > Virginia
Elevation: 200 feet     Latitude: 37 06N     Longitude: 081 07W

WEATHER
 
SELECT A DAY
Number of Records: 213,281;   Date Range: 1/1/95 - 12/18/14
 
SHARE

PRINT THIS DATA

[ ← Previous Day ]
WEATHER ALMANAC - JULY 11, 2014
[ Next Day → ]
[ °C ]   °F
Weather ElementAverageHighLow
Temperature74.4 °F84.9 °F (3:52 pm)63 °F (3:52 am)
Dewpoint56.5 °F62.1 °F (9:52 am)51.1 °F (9:52 pm)
Humidity56.9 %81 % (3:52 am)32 % (5:52 pm)
Barometer30.16 in30.20 in (7:17 pm)30.12 in (3:21 am)
Wind Speed2.4 mph6.9 mph (12:52 am)
Weather ElementAverage
Visibility10 mi
Wind DirectionENE (65.2 °)

Weather ElementTotal
Precipitation---
Cooling Degree Days9 (Base 65)
Growing Degree Days24 (Base 50)
Averaged from 23 records on July 11, 2014
WEATHER CONDITIONS BREAKOUT
WIND DIRECTION BREAKOUT
WEATHER BY HOUR - JULY 11, 2014
[ °C ]   °F
Local TimeTemperatureDewpointHumidityBarometerVisibilityWind DirectionWind SpeedGust SpeedPrecipitationEventsConditions
12:52 AM66.0 °F57.9 °F75 %30.13 in10.0 miWSW (250°)4.6 mphClear
2:52 AM64.0 °F57.0 °F78 %30.13 in10.0 miWNW (290°)3.5 mphClear
3:52 AM63.0 °F57.0 °F81 %30.13 in10.0 miCalmClear
4:52 AM64.0 °F57.9 °F80 %30.12 in10.0 miCalmClear
5:52 AM63.0 °F55.9 °F78 %30.13 in10.0 miCalmClear
6:52 AM64.9 °F57.9 °F78 %30.15 in10.0 miCalmClear
7:52 AM68.0 °F60.1 °F76 %30.16 in10.0 miCalmClear
8:52 AM69.1 °F60.1 °F73 %30.18 in10.0 miCalmClear
9:52 AM73.9 °F62.1 °F66 %30.19 in10.0 miCalmClear
10:52 AM78.1 °F57.0 °F48 %30.19 in10.0 miCalmClear
11:52 AM79.0 °F55.0 °F44 %30.20 in10.0 miCalmPartly Cloudy
12:52 PM81.0 °F54.0 °F39 %30.19 in10.0 miEast (90°)5.8 mphPartly Cloudy
1:52 PM82.9 °F51.1 °F33 %30.17 in10.0 miCalmMostly Cloudy
2:52 PM84.0 °F52.0 °F33 %30.16 in10.0 miWest (270°)4.6 mphMostly Cloudy
3:52 PM84.9 °F53.1 °F33 %30.16 in10.0 miVariable6.9 mphClear
4:52 PM82.0 °F51.1 °F34 %30.16 in10.0 miVariable4.6 mphClear
5:52 PM84.0 °F51.1 °F32 %30.14 in10.0 miVariable3.5 mphClear
6:52 PM84.0 °F53.1 °F34 %30.14 in10.0 miCalmOvercast
7:52 PM80.1 °F55.0 °F42 %30.15 in10.0 miCalmPartly Cloudy
8:52 PM77.0 °F57.9 °F52 %30.17 in10.0 miSE (140°)4.6 mphMostly Cloudy
9:52 PM73.9 °F61.0 °F64 %30.18 in10.0 miSE (130°)4.6 mphMostly Cloudy
10:52 PM72.0 °F61.0 °F68 %30.20 in10.0 miSSE (160°)5.8 mphPartly Cloudy
11:52 PM72.0 °F61.0 °F68 %30.20 in10.0 miSouth (170°)6.9 mphClear
Hourly data recorded from KBLF, located miles away from Bland, Virginia







STORIES FROM OUR PARTNERS